STARLINK-5108 (53992 NORAD) Tracking and Keplerian Element Data

This shows tracking and keplerian element data for the satellite.

Feedback or suggestion? Click here.




ElementValue
Catalog53992
NameSTARLINK-5108
Epoch Orbit130
Epoch Day324.91667824
Epoch Year2022
RAAN225.4869
Inclination53.2166
Eccentricity0.0001467
Argument of Perigee89.6463
Mean Anonmoly176.8703
Mean Motion15.49886406
Decay Rate-0.00033433
L11 53992U 22125AE 22324.91667824 -.00033433 00000+0 -58358-3 0 9995
L22 53992 53.2166 225.4869 0001467 89.6463 176.8703 15.49886406 1300



Live tracking and technical data element details for STARLINK-5108 (NORAD 53992). STARLINK-5108 can be tracked NOW for your location showing map with azimuth and elevation plus other details from your city location.







IsCatalogInMostPopularTable: catalog: 53992, numindb: 3
Update: records affected: 1



GetName: 53992 STARLINK-5108

Hit Count: updated at: Mon, 28 Nov 2022 22:17:15 GMT